sat.trackr.live / text

‹ back to catalog

STARLINK-4155

NORAD 53036 · 2022-076BC

PAYLOAD ACTIVE UNKNOWN

§ Identity

Operator
Country
US
Launch date
2022-07-07
Launch site
AFETR
Launch vehicle
Mass (kg)
RCS (m²)

Purposes: comms

External: N2YO · Heavens-Above · Gunter

§ Orbital elements

Epoch: 2026-05-25T02:54:34.920000Z

Period
95.44 min
Inclination
53.2139°
Eccentricity
0.0001364
Mean motion
15.08850282 rev/d
Perigee alt
538.8 km
Apogee alt
540.7 km
Semi-major
6,917.8 km
B*
4.2608e-4
RAAN
91.0046°
Arg perigee
88.9967°
Mean anomaly
271.1181°
Rev number
21,466

§ Raw data

STARLINK-41551 53036U 22076BC  26145.12123750  .00006501  00000+0  42608-3 0  99972 53036  53.2139  91.0046 0001364  88.9967 271.1181 15.08850282214662

JSON: /api/v1/satellites/53036 · /tle

For live sub-satellite position, see the globe view (requires WebGL).

§ Visibility from observer

Set your observer location to see the next 7 days of passes ≥ 10°. The values pass through the URL so the page stays shareable.

No JS? Fill the form by hand. The geolocation button needs JavaScript.